{"data":{"norad_id":55971,"epoch":"2026-09-20T04:32:35.291040Z","epoch_age_seconds":41152,"freshness":"FRESH","line1":"1 55971U 23038B   26263.18929735  .00000083  00000+0  00000+0 0  9995","line2":"2 55971   0.0390 282.2808 0001685 245.1945 124.8669  1.00272549 13045","mean_motion":1.00272549,"eccentricity":0.0001685,"inclination_deg":0.039,"raan_deg":282.2808,"arg_perigee_deg":245.1945,"mean_anomaly_deg":124.8669,"bstar":0,"rev_number":1304,"period_min":1436.0859620712,"perigee_km":35779.27606437,"apogee_km":35793.485506863,"semimajor_km":42164.517785617,"source":"CELESTRAK","updated_at":"2026-09-20T09:00:35.689065Z"}}